Hourly Weather Otradnyy

Today, 30 July, Friday

Time Temperature Precipitation Wind Pressure Humidity
00:00 +21°C° 0 mm 2 mps 748 mmHg 57%
01:00 +21°C° 0 mm 2 mps 748 mmHg 59%
02:00 +20°C° 0 mm 2 mps 748 mmHg 60%
03:00 +19°C° 0 mm 2 mps 748 mmHg 62%
04:00 +20°C° 0 mm 2 mps 748 mmHg 63%
05:00 +20°C° 0 mm 2 mps 748 mmHg 64%
06:00 +20°C° 0 mm 2 mps 748 mmHg 65%
07:00 +23°C° 0 mm 1 mps 748 mmHg 58%
08:00 +26°C° 0 mm 1 mps 748 mmHg 50%
09:00 +28°C° 0 mm 1 mps 748 mmHg 44%
10:00 +29°C° 0 mm 1 mps 748 mmHg 40%
11:00 +31°C° 0 mm 2 mps 748 mmHg 37%
12:00 +32°C° 0 mm 2 mps 747 mmHg 34%
13:00 +34°C° 0 mm 2 mps 747 mmHg 32%
14:00 +35°C° 0 mm 2 mps 747 mmHg 30%
15:00 +35°C° 0 mm 2 mps 746 mmHg 28%
16:00 +35°C° 0 mm 2 mps 746 mmHg 29%
17:00 +34°C° 0 mm 2 mps 746 mmHg 29%
18:00 +34°C° 0 mm 3 mps 746 mmHg 30%
19:00 +30°C° 0 mm 2 mps 746 mmHg 33%
20:00 +28°C° 0 mm 2 mps 746 mmHg 36%
21:00 +26°C° 0 mm 2 mps 746 mmHg 39%
22:00 +25°C° 0 mm 2 mps 746 mmHg 43%
23:00 +24°C° 0 mm 2 mps 746 mmHg 47%

Tomorrow, 31 July, Saturday

Time Temperature Precipitation Wind Pressure Humidity
00:00 +23°C° 0 mm 2 mps 746 mmHg 51%
01:00 +21°C° 0 mm 2 mps 746 mmHg 55%
02:00 +21°C° 0 mm 2 mps 746 mmHg 58%
03:00 +20°C° 0 mm 2 mps 746 mmHg 62%
04:00 +20°C° 0 mm 2 mps 746 mmHg 64%
05:00 +20°C° 0 mm 2 mps 746 mmHg 66%
06:00 +20°C° 0 mm 2 mps 746 mmHg 68%
07:00 +24°C° 0 mm 2 mps 746 mmHg 59%
08:00 +26°C° 0 mm 2 mps 747 mmHg 50%
09:00 +29°C° 0 mm 2 mps 747 mmHg 41%
10:00 +31°C° 0 mm 2 mps 746 mmHg 36%
11:00 +34°C° 0 mm 2 mps 746 mmHg 31%
12:00 +35°C° 0 mm 2 mps 746 mmHg 26%
13:00 +36°C° 0 mm 2 mps 746 mmHg 25%
14:00 +37°C° 0 mm 2 mps 746 mmHg 24%
15:00 +37°C° 0 mm 2 mps 745 mmHg 23%
16:00 +37°C° 0 mm 2 mps 745 mmHg 24%
17:00 +36°C° 0 mm 2 mps 745 mmHg 26%
18:00 +36°C° 0 mm 2 mps 745 mmHg 27%
19:00 +34°C° 0 mm 2 mps 745 mmHg 32%
20:00 +30°C° 0 mm 2 mps 746 mmHg 37%
21:00 +28°C° 0 mm 2 mps 746 mmHg 42%
22:00 +26°C° 0 mm 2 mps 746 mmHg 47%
23:00 +25°C° 0 mm 2 mps 746 mmHg 52%

Day after tomorrow, 1 August, Sunday

Time Temperature Precipitation Wind Pressure Humidity
00:00 +24°C° 0 mm 2 mps 746 mmHg 57%
01:00 +23°C° 0 mm 2 mps 746 mmHg 62%
02:00 +23°C° 0 mm 2 mps 746 mmHg 67%
03:00 +21°C° 0 mm 2 mps 746 mmHg 72%
04:00 +21°C° 0 mm 2 mps 747 mmHg 73%
05:00 +21°C° 0 mm 2 mps 747 mmHg 74%
06:00 +21°C° 0 mm 2 mps 747 mmHg 75%
07:00 +25°C° 0 mm 1 mps 747 mmHg 66%
08:00 +27°C° 0 mm 1 mps 747 mmHg 57%
09:00 +30°C° 0 mm 1 mps 747 mmHg 48%
10:00 +32°C° 0 mm 1 mps 747 mmHg 42%
11:00 +35°C° 0 mm 2 mps 747 mmHg 36%
12:00 +36°C° 0 mm 2 mps 747 mmHg 30%
13:00 +37°C° 0 mm 2 mps 747 mmHg 28%
14:00 +38°C° 0 mm 2 mps 746 mmHg 26%
15:00 +38°C° 0 mm 3 mps 746 mmHg 24%
16:00 +38°C° 0 mm 2 mps 746 mmHg 25%
17:00 +37°C° 0 mm 2 mps 746 mmHg 26%
18:00 +37°C° 0 mm 2 mps 746 mmHg 27%
19:00 +35°C° 0 mm 2 mps 746 mmHg 31%
20:00 +31°C° 0 mm 2 mps 746 mmHg 35%
21:00 +29°C° 0 mm 1 mps 746 mmHg 39%
22:00 +28°C° 0 mm 2 mps 746 mmHg 43%
23:00 +27°C° 0 mm 2 mps 746 mmHg 47%

2 August, Monday

Time Temperature Precipitation Wind Pressure Humidity
00:00 +26°C° 0 mm 2 mps 746 mmHg 52%
01:00 +25°C° 0 mm 2 mps 746 mmHg 55%
02:00 +25°C° 0 mm 2 mps 746 mmHg 59%
03:00 +24°C° 0 mm 2 mps 746 mmHg 62%
04:00 +24°C° 0 mm 2 mps 747 mmHg 64%
05:00 +24°C° 0 mm 2 mps 747 mmHg 65%
06:00 +24°C° 0 mm 2 mps 747 mmHg 67%
07:00 +26°C° 0 mm 2 mps 747 mmHg 59%
08:00 +29°C° 0 mm 2 mps 747 mmHg 51%
09:00 +31°C° 0 mm 2 mps 748 mmHg 43%
10:00 +34°C° 0 mm 2 mps 747 mmHg 38%
11:00 +35°C° 0 mm 1 mps 747 mmHg 33%
12:00 +37°C° 0 mm 1 mps 747 mmHg 28%
13:00 +39°C° 0 mm 2 mps 747 mmHg 27%
14:00 +39°C° 0 mm 2 mps 746 mmHg 25%
15:00 +40°C° 0 mm 2 mps 746 mmHg 23%
16:00 +39°C° 0 mm 2 mps 746 mmHg 24%
17:00 +39°C° 0 mm 2 mps 745 mmHg 24%
18:00 +39°C° 0 mm 2 mps 745 mmHg 25%
19:00 +36°C° 0 mm 2 mps 745 mmHg 29%
20:00 +34°C° 0 mm 2 mps 746 mmHg 34%
21:00 +30°C° 0 mm 2 mps 746 mmHg 38%
22:00 +29°C° 0 mm 2 mps 746 mmHg 44%
23:00 +28°C° 0 mm 3 mps 746 mmHg 49%

3 August, Tuesday

Time Temperature Precipitation Wind Pressure Humidity
00:00 +26°C° 0 mm 3 mps 746 mmHg 55%
01:00 +26°C° 0 mm 3 mps 746 mmHg 62%
02:00 +25°C° 0 mm 3 mps 746 mmHg 68%
03:00 +24°C° 0 mm 3 mps 746 mmHg 75%
04:00 +24°C° 0 mm 3 mps 747 mmHg 76%
05:00 +24°C° 0 mm 3 mps 747 mmHg 77%
06:00 +24°C° 0 mm 2 mps 747 mmHg 78%
07:00 +27°C° 0 mm 3 mps 747 mmHg 67%
08:00 +30°C° 0 mm 3 mps 747 mmHg 55%
09:00 +33°C° 0 mm 3 mps 747 mmHg 43%
10:00 +35°C° 0 mm 3 mps 747 mmHg 37%
11:00 +37°C° 0 mm 3 mps 747 mmHg 32%
12:00 +39°C° 0 mm 3 mps 747 mmHg 26%
13:00 +40°C° 0 mm 3 mps 746 mmHg 24%
14:00 +40°C° 0 mm 3 mps 746 mmHg 23%
15:00 +42°C° 0 mm 3 mps 746 mmHg 21%
16:00 +40°C° 0 mm 3 mps 746 mmHg 22%
17:00 +39°C° 0 mm 3 mps 746 mmHg 23%
18:00 +39°C° 0 mm 3 mps 746 mmHg 24%
19:00 +36°C° 0 mm 3 mps 746 mmHg 28%
20:00 +34°C° 0 mm 3 mps 747 mmHg 32%
21:00 +31°C° 0 mm 3 mps 747 mmHg 36%
22:00 +29°C° 0 mm 3 mps 748 mmHg 41%
23:00 +28°C° 0 mm 3 mps 748 mmHg 45%

4 August, Wednesday

Time Temperature Precipitation Wind Pressure Humidity
00:00 +26°C° 0 mm 2 mps 748 mmHg 50%
01:00 +25°C° 0 mm 2 mps 748 mmHg 54%
02:00 +25°C° 0 mm 2 mps 748 mmHg 57%
03:00 +24°C° 0 mm 2 mps 748 mmHg 61%
04:00 +24°C° 0 mm 2 mps 749 mmHg 61%
05:00 +24°C° 0 mm 2 mps 749 mmHg 62%
06:00 +24°C° 0 mm 2 mps 749 mmHg 62%
07:00 +26°C° 0 mm 2 mps 749 mmHg 56%
08:00 +29°C° 0 mm 1 mps 749 mmHg 51%
09:00 +31°C° 0 mm 1 mps 750 mmHg 45%
10:00 +33°C° 0 mm 1 mps 749 mmHg 40%
11:00 +35°C° 0 mm 2 mps 749 mmHg 36%
12:00 +37°C° 0 mm 2 mps 749 mmHg 31%
13:00 +38°C° 0 mm 2 mps 749 mmHg 29%
14:00 +39°C° 0 mm 2 mps 748 mmHg 28%
15:00 +39°C° 0 mm 2 mps 748 mmHg 26%
16:00 +37°C° 0.2 mm 3 mps 748 mmHg 32%
17:00 +35°C° 0.2 mm 3 mps 748 mmHg 39%
18:00 +33°C° 0.2 mm 3 mps 748 mmHg 46%
19:00 +29°C° 0.3 mm 3 mps 749 mmHg 54%
20:00 +27°C° 0.3 mm 3 mps 749 mmHg 63%
21:00 +25°C° 0.3 mm 3 mps 750 mmHg 71%
22:00 +25°C° 0 mm 2 mps 750 mmHg 73%
23:00 +24°C° 0 mm 2 mps 750 mmHg 75%
Show more